FENGYUN 1C DEB

Satellite information

Favourite Embed

Satellite Type and Status

DEBRISIN ORBIT

Key statistics

Satellite FENGYUN 1C DEB at a glance.

Uptime

9717

Days in orbit

Revolutions

≈ 14.1

Per day

Orbit

SSO

Sun Synchronous Orbit

Inclination

98.7

Latest

Satellite identification and parameters

Extended collection of information and parameters for FENGYUN 1C DEB.

Object identification

Identified? True

Debris? True

Object name: FENGYUN 1C DEB

International designator: 1999-025CKR

Object number (NORAD): 31890

Object ID (CCSDS): 31890

Country: PEOPLES REPUBLIC OF CHINA (PRC)

Current information (Y/N): Y

RCS size: SMALL

Orbital parameters

Period: 102.118 minutes

Inclination: 98.7188 deg

SMA: 7237.05 km

Apoapsis: 910.794 km

Periapsis: 807.036 km

RAAN: 0.7301 deg

Eccentricy: 0.00716857

Argument of periapsis: 234.9125 deg

Mean anomaly: 124.531 deg

Mean motion: 14.10134037 rev/day

Mean motion (dot): 0.00000116 rev/day2

B* drag term: 0.000087675244 1/REarth

Two-line elements (TLE)

Creation date: Dec. 15, 2025, 8:47 p.m.

Reference frame: TEME

Reference center: EARTH

Epoch: Dec. 15, 2025, 6:54 a.m. UTC

TLE line 0: 0 FENGYUN 1C DEB

TLE line 1: 1 31890U 99025CKR 25349.28808610 .00000116 00000-0 87675-4 0 9997

TLE line 2: 2 31890 98.7188 0.7301 0071686 234.9125 124.5310 14.10134037641886

Live tracking on map

Real-time ground track for satellite FENGYUN 1C DEB.

In-orbit conjunctions

A list of the most updated potential collisions computed for object FENGYUN 1C DEB.

Target Orbit TCA Probability of collision Miss distance Type
CZ-6A DEB LEO 2024-12-05 05:44:42 0.000143322 896.0 (m) DEBRIS

Associated space launch

Chinese polar orbiting meteorological satellite

FENGYUN 1C DEB was lifted into orbit during the mission ‘Long March 4B | Feng Yun 1C’, on board a Long March 4B space rocket.

The launch took place on May 10, 1999, 1:33 a.m. from Launch Complex 7.

For more information about the launch, click the button.

Launch to space Long March 4B | Feng Yun 1C
Long March 4B | Feng Yun 1C

Agency: N/A

Status: Launch Successful

Launch date: May 10, 1999, 1:33 a.m. UTC

Rocket: Long March 4B

Launch pad: Launch Complex 7

Location: Taiyuan Satellite Launch Center, People's Republic of China

...

Latest news about this satellite

There are no fresh news available about this satellite. Check back as we update our databases every day.


Newsletter sign-up

Weekly statistics, charts and insights to help you stay on top of the space industry.